Torna al catalogo

WESTPAC

AttivoComunicazioniSSO
NORAD 25398·PAYLOAD·🇦🇺 Australia

Lanciato Jul 10, 1998 da Baikonur Cosmodrome

Loading…

Prossimi Passaggi (prossime 24 ore)

TLE

AggiornatoSource: CelesTrak SupGP

Epoca: Sep 13, 2026, 00:00 UTC

1 25398C 98043E   26256.00000000  .00000075  00000+0  33309-4 0  2561
2 25398  99.0239 244.1654 0000900  11.4933 270.2092 14.23057127    12

Traccia WESTPAC in tempo reale con AllMySat

Download on the App Store